Temp
-5 -5 -6 -6 -6 -7 -7 -8 -8 -8 -9 -9 -9 -10 -10 -10 -10 -10 -10 -10 -10 -10 -10 -10 -10 -9 -9 -9 -9 -8 -8 -8 -7 -6 -4 -3 -2 -2 -2 -2 -2 -2 -2
-6 -7 -8 -8 -8 -9 -9 -9 -10 -10 -10 -10 -11 -11 -11 -11 -11 -11 -11 -11 -11 -11 -11 -11 -11 -10 -9 -9 -9 -9 -9 -9 -8 -8 -7 -6 -5 -5 -4 -3 -3 -3 -3
-8 -9 -9 -9 -10 -10 -11 -11 -11 -12 -12 -12 -12 -11 -12 -12 -12 -12 -12 -12 -12 -11 -11 -11 -11 -11 -11 -10 -10 -9 -9 -9 -9 -9 -8 -8 -7 -6 -6 -5 -4 -4 -4
-10 -10 -10 -11 -11 -12 -12 -12 -12 -12 -12 -12 -12 -13 -13 -13 -13 -13 -13 -13 -13 -13 -12 -12 -11 -11 -12 -12 -11 -11 -10 -10 -9 -9 -9 -9 -8 -8 -7 -6 -6 -6 -5
-10 -11 -11 -12 -12 -13 -13 -13 -13 -13 -13 -14 -14 -14 -14 -14 -14 -14 -14 -14 -14 -14 -13 -13 -14 -14 -13 -13 -13 -13 -13 -12 -11 -10 -9 -9 -9 -9 -9 -8 -7 -6 -6
-11 -12 -12 -13 -13 -13 -13 -14 -14 -14 -14 -14 -15 -15 -15 -15 -15 -15 -15 -15 -15 -14 -15 -15 -15 -14 -14 -14 -13 -13 -13 -13 -13 -13 -11 -11 -9 -10 -10 -9 -9 -8 -6
-13 -13 -13 -13 -14 -14 -14 -15 -15 -15 -15 -15 -15 -15 -15 -16 -16 -15 -15 -15 -16 -16 -15 -15 -15 -15 -14 -14 -14 -14 -14 -14 -14 -14 -13 -13 -12 -11 -11 -11 -10 -10 -9
-13 -13 -14 -14 -15 -15 -15 -15 -15 -16 -16 -16 -16 -16 -16 -16 -16 -16 -16 -16 -16 -16 -16 -16 -15 -15 -15 -15 -15 -15 -15 -15 -15 -15 -14 -14 -14 -14 -13 -13 -12 -12 -10
-14 -14 -15 -15 -15 -16 -16 -16 -16 -16 -16 -16 -16 -16 -16 -16 -16 -16 -16 -17 -17 -16 -16 -16 -16 -16 -16 -16 -15 -15 -15 -15 -15 -15 -15 -14 -14 -14 -14 -14 -14 -14 -12
-14 -15 -15 -16 -16 -16 -16 -16 -17 -17 -17 -17 -17 -17 -16 -17 -16 -17 -17 -17 -17 -17 -16 -17 -17 -17 -16 -16 -16 -16 -15 -15 -15 -15 -14 -14 -15 -15 -15 -15 -14 -14 -14
-14 -15 -16 -16 -17 -17 -17 -17 -17 -17 -17 -17 -17 -17 -17 -17 -17 -17 -18 -18 -18 -17 -17 -17 -17 -17 -17 -17 -17 -16 -16 -16 -15 -15 -15 -15 -14 -15 -15 -15 -16 -16 -15
-15 -15 -16 -17 -17 -17 -17 -17 -17 -17 -18 -17 -17 -17 -17 -17 -17 -17 -18 -18 -18 -18 -17 -17 -17 -17 -17 -17 -17 -17 -18 -18 -18 -18 -18 -17 -18 -17 -17 -17 -16 -16 -17
-15 -16 -17 -18 -18 -17 -17 -18 -17 -18 -18 -18 -18 -17 -17 -17 -18 -18 -18 -18 -18 -18 -18 -17 -18 -18 -19 -18 -18 -18 -19 -19 -19 -19 -19 -19 -20 -21 -21 -20 -20 -20 -18
-16 -16 -17 -17 -18 -18 -18 -18 -18 -18 -18 -18 -18 -18 -18 -18 -18 -19 -19 -19 -19 -18 -18 -17 -18 -19 -19 -20 -20 -20 -20 -20 -20 -20 -20 -20 -21 -22 -22 -22 -22 -21 -20
-16 -17 -17 -18 -18 -18 -18 -18 -19 -19 -18 -18 -18 -18 -18 -18 -19 -19 -20 -20 -19 -19 -19 -19 -19 -20 -20 -20 -20 -20 -21 -21 -21 -20 -20 -21 -22 -22 -22 -23 -23 -23 -22
-17 -17 -18 -18 -18 -18 -18 -18 -19 -19 -19 -19 -19 -19 -19 -19 -20 -20 -20 -20 -20 -20 -20 -20 -20 -20 -20 -20 -20 -20 -21 -21 -21 -21 -21 -22 -22 -22 -22 -22 -22 -22 -22
-17 -17 -18 -18 -18 -18 -18 -18 -19 -19 -19 -19 -19 -19 -19 -20 -21 -21 -21 -20 -21 -20 -20 -21 -21 -21 -21 -21 -21 -21 -21 -21 -22 -21 -21 -22 -22 -22 -22 -22 -21 -21 -22
-17 -18 -18 -18 -18 -18 -18 -19 -19 -19 -19 -19 -20 -19 -20 -21 -21 -21 -21 -21 -21 -21 -22 -22 -22 -22 -22 -22 -22 -22 -22 -22 -22 -22 -21 -21 -22 -22 -22 -21 -21 -21 -20
-17 -18 -18 -18 -19 -19 -19 -19 -19 -19 -19 -19 -20 -21 -21 -21 -22 -22 -21 -21 -21 -21 -21 -22 -22 -22 -22 -22 -22 -22 -22 -22 -22 -22 -22 -22 -22 -22 -22 -22 -21 -21 -20
-18 -18 -18 -18 -19 -19 -19 -19 -20 -20 -20 -20 -21 -21 -22 -22 -22 -22 -22 -22 -21 -21 -22 -22 -22 -22 -22 -23 -23 -23 -22 -22 -22 -22 -22 -22 -22 -22 -22 -22 -21 -21 -20
-18 -18 -19 -19 -19 -19 -20 -20 -20 -20 -20 -20 -21 -22 -22 -22 -22 -22 -22 -22 -22 -22 -22 -22 -23 -23 -23 -23 -23 -23 -23 -23 -22 -22 -22 -22 -22 -22 -22 -22 -22 -21 -21
-19 -19 -19 -19 -20 -20 -20 -20 -20 -20 -20 -21 -22 -22 -22 -23 -23 -22 -23 -23 -23 -23 -22 -22 -23 -23 -23 -23 -23 -23 -23 -23 -23 -22 -23 -23 -22 -22 -22 -22 -22 -22 -21
-20 -20 -20 -20 -20 -20 -21 -21 -21 -21 -21 -21 -22 -22 -23 -23 -23 -23 -23 -23 -23 -23 -23 -23 -23 -23 -24 -24 -24 -23 -23 -23 -23 -23 -23 -23 -23 -22 -22 -22 -22 -22 -22
-20 -21 -21 -21 -21 -21 -21 -21 -21 -21 -22 -22 -23 -23 -23 -23 -23 -23 -23 -23 -23 -23 -23 -23 -24 -24 -24 -24 -24 -24 -24 -24 -24 -24 -23 -23 -23 -23 -23 -22 -22 -22 -22
-22 -23 -23 -23 -23 -22 -22 -22 -22 -22 -22 -23 -23 -23 -23 -23 -23 -23 -23 -23 -23 -23 -23 -23 -23 -24 -24 -24 -24 -24 -24 -24 -24 -24 -24 -24 -23 -23 -23 -23 -23 -23 -22
-24 -25 -25 -25 -25 -24 -23 -23 -23 -23 -23 -23 -23 -23 -23 -23 -23 -23 -23 -23 -23 -23 -23 -23 -23 -23 -24 -24 -24 -24 -24 -24 -24 -24 -24 -24 -24 -23 -23 -23 -23 -23 -23
Height
3080 3078 3078 3076 3075 3072 3070 3067 3065 3063 3060 3058 3056 3054 3050 3048 3044 3042 3039 3036 3034 3033 3032 3030 3028 3025 3022 3021 3019 3016 3012 3008 2996 2998 3009 3013 3013 3014 3014 3016 3016 3017 3019
3073 3071 3069 3067 3065 3063 3061 3059 3056 3054 3052 3049 3046 3043 3040 3037 3034 3030 3027 3024 3021 3019 3016 3014 3011 3009 3006 3005 3003 3001 2997 2995 2987 2978 2985 2994 2996 2999 2999 2999 3001 3003 3004
3065 3063 3061 3059 3057 3054 3052 3051 3048 3046 3043 3040 3036 3033 3029 3025 3021 3018 3014 3011 3009 3005 3001 2997 2994 2991 2988 2987 2984 2981 2979 2977 2974 2966 2962 2968 2977 2981 2982 2983 2984 2986 2988
3056 3054 3052 3050 3048 3046 3044 3042 3039 3036 3033 3030 3026 3022 3019 3015 3010 3006 3002 2999 2995 2991 2986 2980 2975 2971 2968 2965 2963 2960 2958 2956 2954 2951 2946 2945 2950 2960 2964 2965 2966 2969 2970
3046 3044 3043 3041 3040 3038 3035 3033 3030 3027 3023 3020 3017 3013 3009 3005 3000 2995 2990 2985 2980 2975 2970 2963 2958 2953 2949 2945 2941 2940 2937 2934 2932 2930 2929 2927 2931 2933 2939 2943 2946 2950 2952
3037 3036 3035 3033 3032 3030 3027 3023 3020 3017 3014 3010 3007 3003 2999 2995 2990 2984 2977 2971 2965 2957 2952 2948 2942 2937 2932 2927 2923 2918 2916 2912 2912 2910 2910 2910 2914 2914 2912 2916 2922 2925 2932
3029 3028 3027 3025 3022 3020 3017 3014 3010 3007 3003 3000 2996 2993 2989 2985 2979 2973 2966 2958 2950 2944 2937 2931 2925 2919 2912 2906 2902 2898 2895 2892 2889 2888 2889 2893 2891 2897 2893 2891 2894 2900 2906
3020 3019 3017 3015 3012 3010 3007 3004 3000 2997 2994 2990 2987 2983 2979 2974 2967 2960 2952 2944 2937 2931 2923 2916 2909 2902 2895 2888 2885 2883 2881 2879 2876 2874 2871 2874 2874 2875 2875 2874 2874 2873 2877
3010 3008 3007 3005 3003 3001 2997 2994 2990 2987 2983 2980 2977 2972 2967 2962 2954 2947 2938 2930 2923 2917 2909 2902 2894 2886 2880 2875 2872 2869 2867 2866 2864 2861 2859 2858 2859 2859 2860 2855 2855 2854 2854
3000 2999 2997 2996 2993 2991 2987 2984 2980 2977 2974 2970 2967 2962 2956 2949 2941 2933 2925 2916 2908 2901 2896 2889 2881 2873 2868 2864 2860 2856 2853 2852 2848 2846 2844 2843 2843 2841 2841 2839 2839 2834 2834
2990 2989 2987 2985 2983 2980 2977 2974 2970 2967 2964 2960 2956 2951 2945 2937 2930 2921 2913 2905 2896 2888 2881 2874 2868 2862 2857 2853 2849 2845 2841 2837 2833 2829 2826 2822 2821 2820 2820 2820 2820 2816 2815
2980 2979 2976 2974 2971 2968 2966 2963 2959 2956 2952 2949 2944 2940 2934 2927 2919 2910 2902 2894 2886 2877 2869 2862 2856 2851 2846 2842 2838 2834 2830 2825 2820 2816 2811 2807 2802 2799 2796 2795 2794 2794 2794
2970 2968 2965 2963 2960 2957 2954 2952 2948 2945 2941 2937 2932 2927 2921 2914 2907 2899 2892 2884 2876 2867 2859 2850 2844 2839 2834 2831 2828 2824 2820 2815 2809 2803 2798 2792 2786 2781 2776 2772 2770 2769 2769
2960 2957 2954 2952 2949 2946 2943 2940 2937 2934 2930 2926 2920 2914 2908 2902 2893 2886 2880 2872 2865 2857 2850 2843 2835 2828 2824 2819 2816 2815 2811 2806 2800 2794 2786 2777 2769 2762 2756 2753 2748 2746 2744
2949 2946 2944 2940 2938 2935 2932 2929 2926 2923 2919 2914 2909 2902 2894 2887 2880 2873 2867 2861 2854 2846 2838 2832 2827 2821 2815 2812 2809 2805 2801 2797 2791 2784 2774 2765 2758 2751 2748 2744 2739 2733 2728
2937 2935 2932 2929 2926 2924 2921 2919 2916 2912 2908 2903 2897 2890 2882 2875 2868 2862 2858 2852 2845 2838 2832 2823 2818 2811 2805 2800 2796 2793 2791 2786 2780 2774 2767 2761 2755 2751 2746 2741 2735 2729 2721
2926 2923 2920 2917 2915 2912 2910 2908 2907 2904 2897 2892 2886 2879 2872 2866 2859 2853 2848 2843 2836 2830 2822 2815 2809 2802 2796 2791 2785 2781 2778 2776 2770 2766 2760 2755 2751 2746 2742 2737 2732 2723 2719
2913 2911 2908 2905 2903 2901 2898 2896 2894 2892 2889 2883 2875 2870 2862 2857 2850 2844 2839 2835 2832 2823 2815 2808 2802 2795 2789 2783 2777 2772 2769 2765 2761 2757 2753 2749 2745 2740 2736 2732 2729 2725 2725
2902 2899 2896 2894 2891 2889 2887 2885 2883 2879 2875 2870 2865 2859 2852 2847 2841 2835 2830 2826 2822 2816 2810 2804 2796 2790 2783 2777 2771 2766 2760 2756 2752 2748 2745 2742 2739 2734 2731 2728 2725 2724 2723
2890 2887 2884 2882 2880 2878 2876 2874 2871 2867 2862 2857 2852 2848 2845 2841 2837 2831 2825 2821 2815 2809 2803 2797 2792 2785 2778 2771 2766 2760 2755 2750 2746 2742 2738 2734 2731 2728 2724 2721 2719 2718 2718
2878 2875 2872 2871 2869 2867 2865 2863 2859 2855 2851 2846 2841 2836 2834 2831 2827 2824 2820 2814 2809 2804 2799 2793 2787 2782 2774 2767 2761 2755 2749 2744 2739 2735 2731 2728 2725 2721 2718 2716 2713 2712 2713
2865 2862 2860 2859 2857 2855 2853 2851 2848 2844 2840 2836 2832 2827 2824 2821 2818 2815 2812 2808 2804 2798 2793 2788 2783 2776 2770 2764 2758 2752 2745 2739 2734 2729 2725 2722 2718 2715 2712 2709 2708 2707 2707
2851 2849 2846 2844 2842 2841 2840 2837 2835 2832 2828 2825 2823 2820 2816 2813 2810 2807 2804 2801 2797 2792 2788 2784 2779 2773 2767 2762 2755 2748 2741 2736 2730 2723 2718 2715 2713 2709 2706 2704 2703 2702 2702
2834 2831 2829 2827 2826 2825 2825 2824 2822 2819 2817 2815 2813 2811 2808 2806 2803 2800 2796 2794 2790 2787 2783 2779 2774 2769 2765 2759 2754 2748 2741 2735 2728 2722 2716 2711 2708 2705 2702 2700 2699 2698 2698
2811 2809 2807 2807 2807 2809 2809 2810 2809 2808 2807 2806 2804 2802 2800 2798 2796 2793 2790 2786 2783 2781 2778 2773 2769 2766 2761 2756 2751 2745 2740 2734 2727 2721 2716 2710 2705 2702 2699 2697 2696 2695 2695
2789 2787 2787 2788 2790 2793 2795 2796 2797 2797 2797 2797 2795 2794 2792 2791 2789 2787 2785 2781 2779 2775 2772 2768 2764 2760 2756 2752 2747 2743 2738 2733 2727 2721 2716 2711 2706 2702 2698 2696 2694 2693 2692
Wind_Speed
37 38 40 42 43 44 44 45 44 41 38 37 38 39 40 41 43 45 46 48 48 46 46 48 49 51 53 54 55 57 59 60 66 65 59 55 53 53 51 47 46 47 51
39 39 40 42 42 40 39 37 37 36 38 39 40 41 43 45 46 47 47 48 50 51 52 52 53 55 57 59 60 61 62 63 67 73 68 63 60 55 54 54 50 46 47
36 38 39 37 35 34 34 33 34 36 38 40 43 44 44 44 44 46 48 50 51 53 56 58 59 59 60 60 62 64 66 67 68 73 76 72 67 64 61 59 58 55 51
37 37 36 34 33 32 32 34 37 38 40 41 41 41 43 44 46 47 49 53 56 58 60 62 64 64 62 61 62 64 66 69 70 72 76 75 73 69 67 66 65 62 59
36 35 33 31 33 35 36 38 40 40 38 38 40 41 42 42 45 49 53 56 60 62 61 60 59 59 60 61 61 60 62 65 68 72 75 76 76 73 69 68 69 68 67
34 32 32 34 36 39 39 39 37 38 39 40 39 40 40 43 47 51 56 61 63 60 56 55 56 58 61 61 64 67 67 67 67 68 71 73 74 73 73 71 68 68 69
30 35 38 39 40 39 36 37 39 40 39 38 38 39 42 45 49 54 60 62 57 54 55 57 58 59 61 62 59 56 55 57 60 63 66 66 69 68 71 72 73 71 70
37 38 38 39 37 35 38 40 41 40 38 37 38 41 45 47 52 57 62 58 53 53 56 57 57 57 54 51 47 44 42 41 41 43 49 54 58 63 66 68 71 74 76
36 36 37 35 34 37 40 42 41 39 39 39 41 44 46 49 53 58 60 55 53 54 55 54 52 51 47 44 43 43 42 41 41 42 44 46 47 49 51 59 66 71 75
32 31 33 34 36 40 41 41 38 39 39 40 41 45 48 50 55 58 57 55 55 55 53 51 49 46 44 39 38 39 40 40 44 46 48 50 52 54 55 57 59 63 66
31 33 33 35 38 39 41 37 38 39 39 40 43 45 49 52 55 57 54 54 54 54 51 50 45 40 39 37 37 38 41 44 46 49 51 54 56 56 57 57 59 63 67
33 33 35 37 40 41 39 38 39 38 38 40 43 46 49 53 55 55 51 50 49 48 49 49 43 36 34 34 35 36 38 42 45 48 51 53 55 57 58 58 60 60 64
33 35 36 37 40 39 40 40 40 38 39 41 45 49 51 53 55 51 49 47 44 45 46 46 41 37 34 32 31 33 36 37 41 45 49 53 53 55 56 59 62 60 61
35 37 38 39 39 40 39 38 39 37 39 43 47 51 53 55 56 50 48 45 43 43 43 42 40 38 36 34 33 32 33 35 39 43 50 51 53 57 60 57 54 51 55
37 39 41 41 40 41 39 39 36 37 41 45 49 53 56 57 55 49 47 43 43 43 43 42 39 37 36 34 33 33 33 35 39 43 43 38 30 23 21 22 28 33 40
39 40 41 39 40 40 38 37 38 40 44 47 50 54 56 56 51 48 44 40 41 41 39 39 37 36 36 35 35 35 33 34 36 38 34 21 20 22 22 24 29 27 35
41 42 40 40 38 38 38 39 40 41 45 48 51 54 54 50 45 44 40 38 39 39 39 39 38 37 36 35 35 35 35 33 34 32 29 25 25 27 30 25 26 29 22
45 43 40 40 39 37 37 39 41 44 45 48 50 51 49 42 41 40 38 35 34 34 36 36 35 35 34 33 33 32 31 31 31 30 28 26 23 25 27 27 21 20 16
44 43 42 40 38 36 37 38 41 45 49 52 50 44 41 38 37 37 36 36 33 31 31 31 33 33 33 32 31 29 29 28 28 27 27 28 29 31 30 29 27 22 17
43 44 42 40 38 37 38 39 44 47 50 49 45 39 33 32 30 30 31 30 30 30 29 30 30 31 32 31 30 29 26 25 25 24 25 25 24 25 26 27 27 24 25
45 45 41 39 38 38 39 42 46 47 46 43 40 36 33 31 28 27 26 27 27 27 27 27 28 29 30 30 30 29 27 26 26 25 24 25 25 23 23 24 23 21 23
44 44 42 41 42 42 43 45 46 44 42 40 34 33 33 30 27 26 25 25 25 26 27 27 27 29 29 30 30 29 28 28 26 26 24 23 23 22 22 21 20 21 21
46 46 47 47 46 45 45 45 44 42 40 36 31 30 30 28 27 25 24 24 24 25 26 26 26 26 27 28 29 30 30 31 29 28 24 21 20 19 18 17 17 19 20
52 53 53 52 50 48 46 43 42 39 36 31 30 29 27 25 25 24 23 23 22 24 26 25 25 25 25 26 27 27 28 30 28 27 25 21 19 18 17 16 15 16 19
57 57 55 53 50 46 43 41 38 36 31 28 27 27 24 22 21 20 21 21 21 23 23 24 25 24 24 25 25 25 26 27 27 26 24 21 18 16 14 14 14 14 15
46 46 45 44 42 39 37 35 32 28 26 25 25 22 19 17 17 16 18 19 20 22 23 24 25 25 23 23 23 23 23 23 24 24 23 21 19 17 15 12 11 11 12
Wind_Direction
297 297 296 296 296 299 302 304 305 304 302 299 298 297 296 295 294 293 293 292 291 289 284 281 279 279 278 277 276 276 277 278 279 275 269 264 262 262 263 261 259 258 255
293 293 295 296 298 298 298 297 297 295 295 294 295 295 294 293 293 292 291 290 290 290 290 288 286 283 278 276 275 274 274 273 275 277 276 269 266 263 260 259 259 256 256
288 288 289 289 288 291 292 291 291 291 292 292 293 293 293 294 295 296 296 296 295 294 292 291 289 287 283 280 277 275 272 272 272 273 275 274 270 267 264 261 259 258 258
284 286 287 288 288 289 291 292 292 293 292 291 292 293 295 297 299 301 301 302 301 300 298 296 293 291 288 286 282 277 274 272 271 270 271 273 272 269 267 266 264 263 260
283 287 288 287 290 293 293 292 292 292 292 294 295 296 298 300 303 305 306 306 304 302 300 297 295 293 291 289 286 283 280 276 272 269 268 270 270 271 269 266 264 263 262
286 288 287 288 289 290 290 290 291 294 297 298 298 299 300 303 305 307 307 307 307 303 300 297 295 294 293 290 287 285 282 278 274 273 270 269 268 269 271 269 266 263 259
289 290 288 287 289 289 290 293 296 299 299 299 300 301 303 305 307 308 310 311 306 302 300 300 298 299 296 293 289 286 282 280 277 273 270 270 269 270 268 269 269 266 262
290 286 283 285 286 287 291 294 297 298 298 299 300 302 305 307 309 311 314 310 305 303 304 303 302 302 299 293 289 287 286 287 286 282 278 275 271 269 269 269 268 268 264
284 280 281 281 283 286 290 294 295 296 298 299 300 303 307 309 311 313 315 309 306 307 305 304 307 305 299 295 290 289 288 287 288 285 283 280 277 274 271 269 267 266 264
281 278 277 279 281 284 289 292 292 295 296 296 300 305 309 311 313 316 314 310 310 309 307 310 308 303 299 298 295 294 293 295 292 290 285 281 278 275 272 268 267 266 265
285 284 282 281 282 286 291 290 292 294 296 296 301 306 310 312 314 316 313 311 312 309 309 311 309 303 300 297 297 298 299 299 297 296 293 291 287 282 276 270 266 265 263
287 284 282 281 285 287 288 290 294 295 295 299 303 307 310 312 314 315 312 312 311 310 311 311 312 307 298 295 299 303 306 306 305 303 300 298 295 292 288 281 272 264 259
287 286 283 285 287 289 289 290 292 294 296 301 306 310 311 313 315 313 311 315 314 312 312 316 319 313 307 302 301 304 306 307 307 306 306 303 297 292 287 283 278 272 261
289 287 287 288 290 291 292 291 292 292 296 303 308 311 313 315 316 315 314 317 316 315 314 317 318 314 311 307 305 306 304 305 307 308 309 304 296 292 293 293 288 279 267
287 287 289 289 288 291 293 292 290 294 299 304 309 311 313 317 316 315 317 319 318 318 319 320 319 313 307 301 297 300 302 303 308 314 317 315 320 322 328 321 313 297 272
290 291 291 288 288 289 291 289 291 295 300 307 311 314 314 315 313 313 315 317 318 319 320 322 323 318 311 306 302 300 301 304 309 319 322 314 326 329 331 332 329 302 283
293 292 291 291 289 290 290 289 288 294 303 308 311 313 312 310 309 310 313 318 319 319 326 328 327 324 320 313 307 305 303 300 305 313 319 312 303 309 311 312 323 339 294
289 290 290 289 289 290 290 290 291 296 301 307 310 310 308 306 307 308 312 317 318 322 325 326 328 325 324 321 316 310 306 305 300 300 303 308 308 307 308 305 311 326 301
292 292 291 289 288 289 291 293 296 301 305 307 307 306 303 306 306 308 312 316 320 325 327 328 330 330 327 324 322 318 313 310 306 303 301 299 299 300 303 302 294 287 287
291 292 291 289 288 290 292 296 299 302 305 306 305 303 299 302 300 300 306 313 321 327 332 335 336 336 335 330 324 321 318 313 309 307 304 302 302 307 308 306 301 277 276
289 289 287 287 288 290 292 296 298 301 304 305 304 300 303 303 301 302 305 313 319 324 331 335 339 340 341 340 335 329 324 317 311 309 308 306 303 303 308 309 301 291 253
288 285 282 283 285 287 290 293 296 299 301 302 299 298 302 302 303 303 308 312 316 324 329 334 339 341 343 343 342 340 341 336 325 312 307 308 305 301 302 303 301 295 284
283 279 278 279 280 283 287 290 293 296 298 297 293 296 297 299 301 302 306 310 315 321 324 328 333 339 340 341 343 344 347 344 342 336 324 308 308 309 309 305 298 289 283
281 278 276 276 276 278 282 284 288 291 293 289 290 295 295 296 296 299 306 307 315 318 318 321 326 329 333 336 340 344 348 346 348 347 342 331 316 313 313 310 303 291 277
276 273 271 271 272 273 275 278 281 285 285 282 288 290 292 295 295 303 307 313 319 319 319 321 321 322 323 326 331 337 343 346 350 353 352 350 343 332 325 319 312 302 287
280 274 271 268 267 267 266 269 273 274 273 279 284 286 290 293 297 306 310 315 318 319 321 323 323 324 323 322 325 328 334 341 347 352 354 355 357 357 353 346 331 313 296